<?xml version='1.0' encoding='UTF-8'?>
<gpx xmlns="http://www.topografix.com/GPX/1/1" creator="www.balnam.be" version="1.1" xmlns:xsi="http://www.w3.org/2001/XMLSchema-instance" xsi:schemaLocation="http://www.topografix.com/GPX/1/1 http://www.topografix.com/GPX/1/1/gpx.xsd">
<trk>
<name>hlsol10</name>
<cmt>v</cmt>
<desc>Ollignies Chemin n°10 Drève du Château</desc>
<link href="https://chemins.be/ollignies/chemin/10"/><trkseg>
<trkpt lat="50.686228" lon="3.855360"><time>2026-05-02T17:16:55Z</time></trkpt>
<trkpt lat="50.684194" lon="3.852750"><time>2026-05-02T17:26:55Z</time></trkpt>
</trkseg>
</trk>
<trk>
<name>hlsol11</name>
<cmt>r</cmt>
<desc>Ollignies Chemin n°11 Chemin des Etangs</desc>
<link href="https://chemins.be/ollignies/chemin/11"/><trkseg>
<trkpt lat="50.689036" lon="3.864231"><time>2026-05-02T17:16:55Z</time></trkpt>
<trkpt lat="50.688965" lon="3.864374"><time>2026-05-02T17:26:55Z</time></trkpt>
<trkpt lat="50.688534" lon="3.864491"><time>2026-05-02T17:36:55Z</time></trkpt>
<trkpt lat="50.688428" lon="3.865044"><time>2026-05-02T17:46:55Z</time></trkpt>
<trkpt lat="50.688341" lon="3.867734"><time>2026-05-02T17:56:55Z</time></trkpt>
<trkpt lat="50.687541" lon="3.869894"><time>2026-05-02T18:06:55Z</time></trkpt>
</trkseg>
</trk>
<trk>
<name>hlsol22</name>
<cmt>v</cmt>
<desc>Ollignies Sentier n°22 </desc>
<link href="https://chemins.be/ollignies/sentier/22"/><trkseg>
<trkpt lat="50.686797" lon="3.857944"><time>2026-05-02T17:16:55Z</time></trkpt>
<trkpt lat="50.687181" lon="3.859383"><time>2026-05-02T17:26:55Z</time></trkpt>
<trkpt lat="50.687322" lon="3.860797"><time>2026-05-02T17:36:55Z</time></trkpt>
<trkpt lat="50.686984" lon="3.861593"><time>2026-05-02T17:46:55Z</time></trkpt>
</trkseg>
</trk>
<trk>
<name>hlsol23</name>
<cmt>r</cmt>
<desc>Ollignies Chemin n°23 Place d'Ollignies</desc>
<link href="https://chemins.be/ollignies/chemin/23"/><trkseg>
<trkpt lat="50.687362" lon="3.857640"><time>2026-05-02T17:16:55Z</time></trkpt>
<trkpt lat="50.687915" lon="3.858667"><time>2026-05-02T17:26:55Z</time></trkpt>
<trkpt lat="50.688185" lon="3.858622"><time>2026-05-02T17:36:55Z</time></trkpt>
</trkseg>
</trk>
<trk>
<name>hlsol29</name>
<cmt>v</cmt>
<desc>Ollignies Sentier n°29 </desc>
<link href="https://chemins.be/ollignies/sentier/29"/><trkseg>
<trkpt lat="50.675202" lon="3.860389"><time>2026-05-02T17:16:55Z</time></trkpt>
<trkpt lat="50.675178" lon="3.861281"><time>2026-05-02T17:26:55Z</time></trkpt>
</trkseg></trk>
<trk>
<name>hlsol29</name>
<cmt>q</cmt>
<desc>Ollignies Sentier n°29 </desc>
<link href="https://chemins.be/ollignies/sentier/29"/><trkseg>
<trkpt lat="50.675178" lon="3.861281"><time>2026-05-02T17:26:55Z</time></trkpt>
<trkpt lat="50.676188" lon="3.864071"><time>2026-05-02T17:36:55Z</time></trkpt>
<trkpt lat="50.676842" lon="3.865493"><time>2026-05-02T17:46:55Z</time></trkpt>
<trkpt lat="50.675757" lon="3.868193"><time>2026-05-02T17:56:55Z</time></trkpt>
<trkpt lat="50.674646" lon="3.871275"><time>2026-05-02T18:06:55Z</time></trkpt>
</trkseg>
</trk>
<trk>
<name>hlsol45</name>
<cmt>q</cmt>
<desc>Ollignies Sentier n°45 Drève du Château</desc>
<link href="https://chemins.be/ollignies/sentier/45"/><trkseg>
<trkpt lat="50.684598" lon="3.858746"><time>2026-05-02T17:16:55Z</time></trkpt>
<trkpt lat="50.684515" lon="3.858265"><time>2026-05-02T17:26:55Z</time></trkpt>
<trkpt lat="50.686052" lon="3.856225"><time>2026-05-02T17:36:55Z</time></trkpt>
</trkseg></trk>
<trk>
<name>hlsol45</name>
<cmt>r</cmt>
<desc>Ollignies Sentier n°45 Drève du Château</desc>
<link href="https://chemins.be/ollignies/sentier/45"/><trkseg>
<trkpt lat="50.686052" lon="3.856225"><time>2026-05-02T17:36:55Z</time></trkpt>
<trkpt lat="50.686274" lon="3.855444"><time>2026-05-02T17:46:55Z</time></trkpt>
</trkseg>
</trk>
<trk>
<name>hlsol51</name>
<cmt>v</cmt>
<desc>Ollignies Sentier n°51 </desc>
<link href="https://chemins.be/ollignies/sentier/51"/><trkseg>
<trkpt lat="50.689253" lon="3.864441"><time>2026-05-02T17:16:55Z</time></trkpt>
<trkpt lat="50.689502" lon="3.864000"><time>2026-05-02T17:26:55Z</time></trkpt>
<trkpt lat="50.689957" lon="3.863188"><time>2026-05-02T17:36:55Z</time></trkpt>
<trkpt lat="50.690331" lon="3.862222"><time>2026-05-02T17:46:55Z</time></trkpt>
</trkseg>
</trk>
<trk>
<name>hlsol56</name>
<cmt>d</cmt>
<desc>Ollignies Sentier n°56 </desc>
<link href="https://chemins.be/ollignies/sentier/56"/><trkseg>
<trkpt lat="50.676586" lon="3.860318"><time>2026-05-02T17:16:55Z</time></trkpt>
<trkpt lat="50.676975" lon="3.860993"><time>2026-05-02T17:26:55Z</time></trkpt>
</trkseg></trk>
<trk>
<name>hlsol56</name>
<cmt>q</cmt>
<desc>Ollignies Sentier n°56 </desc>
<link href="https://chemins.be/ollignies/sentier/56"/><trkseg>
<trkpt lat="50.676975" lon="3.860993"><time>2026-05-02T17:26:55Z</time></trkpt>
<trkpt lat="50.677428" lon="3.861738"><time>2026-05-02T17:36:55Z</time></trkpt>
<trkpt lat="50.678488" lon="3.863566"><time>2026-05-02T17:46:55Z</time></trkpt>
</trkseg>
</trk>
<trk>
<name>hlsol57</name>
<cmt>q</cmt>
<desc>Ollignies Sentier n°57 </desc>
<link href="https://chemins.be/ollignies/sentier/57"/><trkseg>
<trkpt lat="50.688509" lon="3.864959"><time>2026-05-02T17:16:55Z</time></trkpt>
<trkpt lat="50.689114" lon="3.865603"><time>2026-05-02T17:26:55Z</time></trkpt>
<trkpt lat="50.689520" lon="3.866038"><time>2026-05-02T17:36:55Z</time></trkpt>
</trkseg>
</trk>
<trk>
<name>hlsol58</name>
<cmt>v</cmt>
<desc>Ollignies Sentier n°58 </desc>
<link href="https://chemins.be/ollignies/sentier/58"/><trkseg>
<trkpt lat="50.687382" lon="3.864178"><time>2026-05-02T17:16:55Z</time></trkpt>
<trkpt lat="50.687338" lon="3.864476"><time>2026-05-02T17:26:55Z</time></trkpt>
<trkpt lat="50.687419" lon="3.864588"><time>2026-05-02T17:36:55Z</time></trkpt>
<trkpt lat="50.688419" lon="3.864988"><time>2026-05-02T17:46:55Z</time></trkpt>
</trkseg>
</trk>
<trk>
<name>hlsol59</name>
<cmt>q</cmt>
<desc>Ollignies Sentier n°59 </desc>
<link href="https://chemins.be/ollignies/sentier/59"/><trkseg>
<trkpt lat="50.689465" lon="3.861594"><time>2026-05-02T17:16:55Z</time></trkpt>
<trkpt lat="50.688755" lon="3.863739"><time>2026-05-02T17:26:55Z</time></trkpt>
<trkpt lat="50.688542" lon="3.864449"><time>2026-05-02T17:36:55Z</time></trkpt>
<trkpt lat="50.688064" lon="3.866152"><time>2026-05-02T17:46:55Z</time></trkpt>
<trkpt lat="50.687711" lon="3.867514"><time>2026-05-02T17:56:55Z</time></trkpt>
<trkpt lat="50.687722" lon="3.868024"><time>2026-05-02T18:06:55Z</time></trkpt>
</trkseg>
</trk>
<trk>
<name>hlsol69</name>
<cmt>d</cmt>
<desc>Ollignies Sentier n°69 </desc>
<link href="https://chemins.be/ollignies/sentier/69"/><trkseg>
<trkpt lat="50.676245" lon="3.860449"><time>2026-05-02T17:16:55Z</time></trkpt>
<trkpt lat="50.676061" lon="3.861597"><time>2026-05-02T17:26:55Z</time></trkpt>
</trkseg></trk>
<trk>
<name>hlsol69</name>
<cmt>q</cmt>
<desc>Ollignies Sentier n°69 </desc>
<link href="https://chemins.be/ollignies/sentier/69"/><trkseg>
<trkpt lat="50.676061" lon="3.861597"><time>2026-05-02T17:26:55Z</time></trkpt>
<trkpt lat="50.675506" lon="3.862268"><time>2026-05-02T17:36:55Z</time></trkpt>
</trkseg>
</trk>
<trk>
<name>hlsol75</name>
<cmt>q</cmt>
<desc>Ollignies Sentier n°75 </desc>
<link href="https://chemins.be/ollignies/sentier/75"/><trkseg>
<trkpt lat="50.693085" lon="3.890646"><time>2026-05-02T17:16:55Z</time></trkpt>
<trkpt lat="50.693067" lon="3.890446"><time>2026-05-02T17:26:55Z</time></trkpt>
<trkpt lat="50.693629" lon="3.888493"><time>2026-05-02T17:36:55Z</time></trkpt>
<trkpt lat="50.694091" lon="3.888157"><time>2026-05-02T17:46:55Z</time></trkpt>
<trkpt lat="50.694680" lon="3.886862"><time>2026-05-02T17:56:55Z</time></trkpt>
</trkseg>
</trk>
<trk>
<name>hlsol86</name>
<cmt>s</cmt>
<desc>Ollignies Sentier n°86 </desc>
<link href="https://chemins.be/ollignies/sentier/86"/><trkseg>
<trkpt lat="50.687798" lon="3.858584"><time>2026-05-02T17:16:55Z</time></trkpt>
<trkpt lat="50.687181" lon="3.859383"><time>2026-05-02T17:26:55Z</time></trkpt>
</trkseg>
</trk>
<trk>
<name>hlsoli1</name>
<cmt>v</cmt>
<desc>Ollignies Sentier n°i1 </desc>
<link href="https://chemins.be/ollignies/sentier/i1"/><trkseg>
<trkpt lat="50.684970" lon="3.859421"><time>2026-05-02T17:16:55Z</time></trkpt>
<trkpt lat="50.684791" lon="3.859805"><time>2026-05-02T17:26:55Z</time></trkpt>
<trkpt lat="50.684551" lon="3.860232"><time>2026-05-02T17:36:55Z</time></trkpt>
<trkpt lat="50.684151" lon="3.861397"><time>2026-05-02T17:46:55Z</time></trkpt>
<trkpt lat="50.683759" lon="3.862278"><time>2026-05-02T17:56:55Z</time></trkpt>
</trkseg>
</trk>
<trk>
<name>hlsoli10</name>
<cmt>v</cmt>
<desc>Ollignies Chemin n°i10 Chemin de Bronchenne</desc>
<link href="https://chemins.be/ollignies/chemin/i10"/><trkseg>
<trkpt lat="50.691456" lon="3.867666"><time>2026-05-02T17:16:55Z</time></trkpt>
<trkpt lat="50.692130" lon="3.866705"><time>2026-05-02T17:26:55Z</time></trkpt>
<trkpt lat="50.693478" lon="3.865640"><time>2026-05-02T17:36:55Z</time></trkpt>
</trkseg>
</trk>
<trk>
<name>hlsoli2</name>
<cmt>v</cmt>
<desc>Ollignies Chemin n°i2 </desc>
<link href="https://chemins.be/ollignies/chemin/i2"/><trkseg>
<trkpt lat="50.683321" lon="3.877090"><time>2026-05-02T17:16:55Z</time></trkpt>
<trkpt lat="50.683342" lon="3.877537"><time>2026-05-02T17:26:55Z</time></trkpt>
<trkpt lat="50.681108" lon="3.885651"><time>2026-05-02T17:36:55Z</time></trkpt>
<trkpt lat="50.680493" lon="3.887888"><time>2026-05-02T17:46:55Z</time></trkpt>
</trkseg>
</trk>
<trk>
<name>hlsoli3</name>
<cmt>v</cmt>
<desc>Ollignies Chemin n°i3 </desc>
<link href="https://chemins.be/ollignies/chemin/i3"/><trkseg>
<trkpt lat="50.679166" lon="3.881759"><time>2026-05-02T17:16:55Z</time></trkpt>
<trkpt lat="50.679340" lon="3.883596"><time>2026-05-02T17:26:55Z</time></trkpt>
<trkpt lat="50.681104" lon="3.885650"><time>2026-05-02T17:36:55Z</time></trkpt>
<trkpt lat="50.684147" lon="3.889190"><time>2026-05-02T17:46:55Z</time></trkpt>
<trkpt lat="50.685788" lon="3.887716"><time>2026-05-02T17:56:55Z</time></trkpt>
<trkpt lat="50.685949" lon="3.887713"><time>2026-05-02T18:06:55Z</time></trkpt>
<trkpt lat="50.686219" lon="3.887673"><time>2026-05-02T18:16:55Z</time></trkpt>
<trkpt lat="50.686409" lon="3.887291"><time>2026-05-02T18:26:55Z</time></trkpt>
<trkpt lat="50.689020" lon="3.884830"><time>2026-05-02T18:36:55Z</time></trkpt>
<trkpt lat="50.693516" lon="3.889061"><time>2026-05-02T18:46:55Z</time></trkpt>
</trkseg>
</trk>
<trk>
<name>hlsoli4</name>
<cmt>v</cmt>
<desc>Ollignies Sentier n°i4 </desc>
<link href="https://chemins.be/ollignies/sentier/i4"/><trkseg>
<trkpt lat="50.688505" lon="3.861958"><time>2026-05-02T17:16:55Z</time></trkpt>
<trkpt lat="50.688325" lon="3.861890"><time>2026-05-02T17:26:55Z</time></trkpt>
<trkpt lat="50.688109" lon="3.861949"><time>2026-05-02T17:36:55Z</time></trkpt>
<trkpt lat="50.688018" lon="3.861723"><time>2026-05-02T17:46:55Z</time></trkpt>
<trkpt lat="50.688017" lon="3.861398"><time>2026-05-02T17:56:55Z</time></trkpt>
<trkpt lat="50.687349" lon="3.860782"><time>2026-05-02T18:06:55Z</time></trkpt>
</trkseg>
</trk>
<trk>
<name>hlsoli5</name>
<cmt>v</cmt>
<desc>Ollignies Chemin n°i5 </desc>
<link href="https://chemins.be/ollignies/chemin/i5"/><trkseg>
<trkpt lat="50.689093" lon="3.884778"><time>2026-05-02T17:16:55Z</time></trkpt>
<trkpt lat="50.685959" lon="3.881631"><time>2026-05-02T17:26:55Z</time></trkpt>
<trkpt lat="50.684713" lon="3.880401"><time>2026-05-02T17:36:55Z</time></trkpt>
<trkpt lat="50.683995" lon="3.879920"><time>2026-05-02T17:46:55Z</time></trkpt>
</trkseg>
</trk>
<trk>
<name>hlsoli6</name>
<cmt>r</cmt>
<desc>Ollignies Sentier n°i6 Rue des Combattants</desc>
<link href="https://chemins.be/ollignies/sentier/i6"/><trkseg>
<trkpt lat="50.688806" lon="3.860922"><time>2026-05-02T17:16:55Z</time></trkpt>
<trkpt lat="50.689515" lon="3.861498"><time>2026-05-02T17:26:55Z</time></trkpt>
<trkpt lat="50.689536" lon="3.861553"><time>2026-05-02T17:36:55Z</time></trkpt>
</trkseg></trk>
<trk>
<name>hlsoli6</name>
<cmt>v</cmt>
<desc>Ollignies Sentier n°i6 Rue des Combattants</desc>
<link href="https://chemins.be/ollignies/sentier/i6"/><trkseg>
<trkpt lat="50.689536" lon="3.861553"><time>2026-05-02T17:36:55Z</time></trkpt>
<trkpt lat="50.690340" lon="3.862165"><time>2026-05-02T17:46:55Z</time></trkpt>
<trkpt lat="50.690855" lon="3.862825"><time>2026-05-02T17:56:55Z</time></trkpt>
<trkpt lat="50.691416" lon="3.861687"><time>2026-05-02T18:06:55Z</time></trkpt>
<trkpt lat="50.691516" lon="3.861827"><time>2026-05-02T18:16:55Z</time></trkpt>
<trkpt lat="50.692409" lon="3.860388"><time>2026-05-02T18:26:55Z</time></trkpt>
</trkseg>
</trk>
<trk>
<name>hlsoli7</name>
<cmt>v</cmt>
<desc>Ollignies Chemin n°i7 Chemin des Etangs</desc>
<link href="https://chemins.be/ollignies/chemin/i7"/><trkseg>
<trkpt lat="50.681232" lon="3.870604"><time>2026-05-02T17:16:55Z</time></trkpt>
<trkpt lat="50.682266" lon="3.873264"><time>2026-05-02T17:26:55Z</time></trkpt>
<trkpt lat="50.682983" lon="3.876371"><time>2026-05-02T17:36:55Z</time></trkpt>
<trkpt lat="50.683321" lon="3.877041"><time>2026-05-02T17:46:55Z</time></trkpt>
<trkpt lat="50.684182" lon="3.877104"><time>2026-05-02T17:56:55Z</time></trkpt>
<trkpt lat="50.684604" lon="3.877057"><time>2026-05-02T18:06:55Z</time></trkpt>
<trkpt lat="50.685496" lon="3.877316"><time>2026-05-02T18:16:55Z</time></trkpt>
<trkpt lat="50.685757" lon="3.877370"><time>2026-05-02T18:26:55Z</time></trkpt>
<trkpt lat="50.686107" lon="3.877423"><time>2026-05-02T18:36:55Z</time></trkpt>
<trkpt lat="50.686197" lon="3.877380"><time>2026-05-02T18:46:55Z</time></trkpt>
<trkpt lat="50.686251" lon="3.877294"><time>2026-05-02T18:56:55Z</time></trkpt>
<trkpt lat="50.686259" lon="3.877181"><time>2026-05-02T19:06:55Z</time></trkpt>
<trkpt lat="50.686250" lon="3.877082"><time>2026-05-02T19:16:55Z</time></trkpt>
<trkpt lat="50.686170" lon="3.876821"><time>2026-05-02T19:26:55Z</time></trkpt>
<trkpt lat="50.686412" lon="3.874822"><time>2026-05-02T19:36:55Z</time></trkpt>
</trkseg>
</trk>
<trk>
<name>hlsoli8</name>
<cmt>v</cmt>
<desc>Ollignies Chemin n°i8 Grand Marais</desc>
<link href="https://chemins.be/ollignies/chemin/i8"/><trkseg>
<trkpt lat="50.692184" lon="3.846181"><time>2026-05-02T17:16:55Z</time></trkpt>
<trkpt lat="50.692274" lon="3.846208"><time>2026-05-02T17:26:55Z</time></trkpt>
<trkpt lat="50.692374" lon="3.846348"><time>2026-05-02T17:36:55Z</time></trkpt>
<trkpt lat="50.692428" lon="3.846376"><time>2026-05-02T17:46:55Z</time></trkpt>
<trkpt lat="50.692518" lon="3.846375"><time>2026-05-02T17:56:55Z</time></trkpt>
<trkpt lat="50.693072" lon="3.845704"><time>2026-05-02T18:06:55Z</time></trkpt>
<trkpt lat="50.693987" lon="3.843259"><time>2026-05-02T18:16:55Z</time></trkpt>
<trkpt lat="50.694040" lon="3.843032"><time>2026-05-02T18:26:55Z</time></trkpt>
<trkpt lat="50.694030" lon="3.842777"><time>2026-05-02T18:36:55Z</time></trkpt>
<trkpt lat="50.693984" lon="3.842608"><time>2026-05-02T18:46:55Z</time></trkpt>
<trkpt lat="50.693748" lon="3.842115"><time>2026-05-02T18:56:55Z</time></trkpt>
<trkpt lat="50.693702" lon="3.841932"><time>2026-05-02T19:06:55Z</time></trkpt>
<trkpt lat="50.693720" lon="3.841790"><time>2026-05-02T19:16:55Z</time></trkpt>
<trkpt lat="50.693818" lon="3.841534"><time>2026-05-02T19:26:55Z</time></trkpt>
</trkseg>
</trk>
<trk>
<name>hlsoli9</name>
<cmt>v</cmt>
<desc>Ollignies Chemin n°i9 Chemin des Etangs</desc>
<link href="https://chemins.be/ollignies/chemin/i9"/><trkseg>
<trkpt lat="50.685760" lon="3.874126"><time>2026-05-02T17:16:55Z</time></trkpt>
<trkpt lat="50.685618" lon="3.874920"><time>2026-05-02T17:26:55Z</time></trkpt>
<trkpt lat="50.685705" lon="3.876118"><time>2026-05-02T17:36:55Z</time></trkpt>
<trkpt lat="50.685879" lon="3.876963"><time>2026-05-02T17:46:55Z</time></trkpt>
<trkpt lat="50.685838" lon="3.877366"><time>2026-05-02T17:56:55Z</time></trkpt>
</trkseg>
</trk>
<trk>
<name>hlsolL87C</name>
<cmt>t</cmt>
<desc>Ollignies Chemin n°L87C </desc>
<link href="https://chemins.be/ollignies/chemin/L87C"/><trkseg>
<trkpt lat="50.693202" lon="3.858922"><time>2026-05-02T17:16:55Z</time></trkpt>
<trkpt lat="50.692158" lon="3.860546"><time>2026-05-02T17:26:55Z</time></trkpt>
<trkpt lat="50.691470" lon="3.861743"><time>2026-05-02T17:36:55Z</time></trkpt>
<trkpt lat="50.690642" lon="3.863521"><time>2026-05-02T17:46:55Z</time></trkpt>
<trkpt lat="50.689575" lon="3.866136"><time>2026-05-02T17:56:55Z</time></trkpt>
<trkpt lat="50.686664" lon="3.872946"><time>2026-05-02T18:06:55Z</time></trkpt>
<trkpt lat="50.686284" lon="3.875006"><time>2026-05-02T18:16:55Z</time></trkpt>
<trkpt lat="50.685964" lon="3.877443"><time>2026-05-02T18:26:55Z</time></trkpt>
</trkseg></trk>
<trk>
<name>hlsolL87C</name>
<cmt>v</cmt>
<desc>Ollignies Chemin n°L87C </desc>
<link href="https://chemins.be/ollignies/chemin/L87C"/><trkseg>
<trkpt lat="50.685964" lon="3.877443"><time>2026-05-02T18:26:55Z</time></trkpt>
<trkpt lat="50.685980" lon="3.881735"><time>2026-05-02T18:36:55Z</time></trkpt>
<trkpt lat="50.685898" lon="3.887628"><time>2026-05-02T18:46:55Z</time></trkpt>
<trkpt lat="50.685967" lon="3.897776"><time>2026-05-02T18:56:55Z</time></trkpt>
<trkpt lat="50.685988" lon="3.900916"><time>2026-05-02T19:06:55Z</time></trkpt>
</trkseg>
</trk>
</gpx>